Back to catalog

STARLINK-34884

AliveCommunicationsVLEO
NORAD 66287·PAYLOAD·🇺🇸 United States

Launched Oct 31, 2025 from Vandenberg Space Force Base

Loading…

Next Passes (next 24 hours)

TLE

FreshSource: CelesTrak SupGP

Epoch: Sep 14, 2026, 14:12 UTC

1 66287C 25247Y   26257.59215278 -.00092947  00000+0 -27460-2 0  2570
2 66287  53.1600  29.6919 0001058  77.3654  19.6737 15.34439098    18

Track STARLINK-34884 in real time with AllMySat

Download on the App Store